Time,TemperatureF,DewpointF,PressureIn,WindDirection,WindDirectionDegrees,WindSpeedMPH,WindSpeedGustMPH,Humidity,HourlyPrecipIn,Conditions,Clouds,dailyrainin,SoftwareType,DateUTC
2013-04-01 00:03:00,41.0,37.0,29.46,NNE,23,0.0,-999.0,84,-99.99,,,-99.99,,2013-04-01 04:03:00,
2013-04-01 00:14:00,41.0,37.0,29.46,NNE,23,0.0,-999.0,84,-99.99,,,-99.99,,2013-04-01 04:14:00,
2013-04-01 00:24:00,40.0,36.0,29.46,ESE,113,1.0,-999.0,87,-99.99,,,-99.99,,2013-04-01 04:24:00,
2013-04-01 00:33:00,40.0,37.0,29.44,ENE,68,1.0,-999.0,89,-99.99,,,-99.99,,2013-04-01 04:33:00,
2013-04-01 00:43:00,40.0,37.0,29.44,ENE,68,1.0,-999.0,89,-99.99,,,-99.99,,2013-04-01 04:43:00,
2013-04-01 00:53:00,40.0,37.0,29.41,ENE,68,0.0,-999.0,90,-99.99,,,-99.99,,2013-04-01 04:53:00,
2013-04-01 01:03:00,39.0,37.0,29.42,ENE,68,0.0,-999.0,92,-99.99,,,-99.99,,2013-04-01 05:03:00,
2013-04-01 01:13:00,39.0,37.0,29.42,ENE,68,0.0,-999.0,92,-99.99,,,-99.99,,2013-04-01 05:13:00,
2013-04-01 01:22:00,39.0,37.0,29.41,ENE,68,0.0,-999.0,93,-99.99,,,-99.99,,2013-04-01 05:22:00,
2013-04-01 01:32:00,38.0,36.0,29.40,ENE,68,0.0,-999.0,94,-99.99,,,-99.99,,2013-04-01 05:32:00,
2013-04-01 01:43:00,38.0,36.0,29.40,ENE,68,0.0,-999.0,94,-99.99,,,-99.99,,2013-04-01 05:43:00,
2013-04-01 01:53:00,39.0,37.0,29.38,ENE,68,0.0,-999.0,94,-99.99,,,-99.99,,2013-04-01 05:53:00,
2013-04-01 02:02:00,38.0,36.0,29.40,ENE,68,0.0,-999.0,94,-99.99,,,-99.99,,2013-04-01 06:02:00,
2013-04-01 02:13:00,38.0,36.0,29.40,ENE,68,0.0,-999.0,94,-99.99,,,-99.99,,2013-04-01 06:13:00,
2013-04-01 02:23:00,39.0,37.0,29.36,SSE,149,0.0,-999.0,94,-99.99,,,-99.99,,2013-04-01 06:23:00,
2013-04-01 02:33:00,38.0,36.0,29.39,SSE,149,0.0,-999.0,94,-99.99,,,-99.99,,2013-04-01 06:33:00,
2013-04-01 02:43:00,38.0,36.0,29.39,SSE,149,0.0,-999.0,94,-99.99,,,-99.99,,2013-04-01 06:43:00,
2013-04-01 02:53:00,38.0,36.0,29.36,ENE,64,1.0,-999.0,93,-99.99,,,-99.99,,2013-04-01 06:53:00,
2013-04-01 03:03:00,38.0,36.0,29.37,ENE,64,0.0,-999.0,93,-99.99,,,-99.99,,2013-04-01 07:03:00,
2013-04-01 03:13:00,38.0,36.0,29.37,ENE,64,0.0,-999.0,93,-99.99,,,-99.99,,2013-04-01 07:13:00,
2013-04-01 03:22:00,38.0,37.0,29.34,ENE,68,0.0,-999.0,95,-99.99,,,-99.99,,2013-04-01 07:22:00,
2013-04-01 03:32:00,37.0,36.0,29.35,ENE,68,0.0,-999.0,95,-99.99,,,-99.99,,2013-04-01 07:32:00,
2013-04-01 03:42:00,37.0,36.0,29.35,ENE,68,0.0,-999.0,95,-99.99,,,-99.99,,2013-04-01 07:42:00,
2013-04-01 03:53:00,37.0,36.0,29.32,ENE,68,0.0,-999.0,95,-99.99,,,-99.99,,2013-04-01 07:53:00,
2013-04-01 04:03:00,37.0,36.0,29.33,ENE,68,0.0,-999.0,96,-99.99,,,-99.99,,2013-04-01 08:03:00,
2013-04-01 04:12:00,37.0,36.0,29.33,ENE,68,0.0,-999.0,96,-99.99,,,-99.99,,2013-04-01 08:12:00,
2013-04-01 04:22:00,37.0,36.0,29.31,ENE,68,0.0,-999.0,96,-99.99,,,-99.99,,2013-04-01 08:22:00,
2013-04-01 04:32:00,37.0,36.0,29.32,ENE,68,0.0,-999.0,96,-99.99,,,-99.99,,2013-04-01 08:32:00,
2013-04-01 04:43:00,37.0,36.0,29.32,ENE,68,0.0,-999.0,96,-99.99,,,-99.99,,2013-04-01 08:43:00,
2013-04-01 04:53:00,37.0,36.0,29.29,ENE,68,0.0,-999.0,96,-99.99,,,-99.99,,2013-04-01 08:53:00,
2013-04-01 05:02:00,36.0,35.0,29.30,ENE,68,0.0,-999.0,96,-99.99,,,-99.99,,2013-04-01 09:02:00,
2013-04-01 05:12:00,36.0,35.0,29.30,ENE,68,0.0,-999.0,96,-99.99,,,-99.99,,2013-04-01 09:12:00,
2013-04-01 05:23:00,36.0,35.0,29.28,ENE,68,0.0,-999.0,96,-99.99,,,-99.99,,2013-04-01 09:23:00,
2013-04-01 05:33:00,35.0,34.0,29.30,ENE,68,0.0,-999.0,96,-99.99,,,-99.99,,2013-04-01 09:33:00,
2013-04-01 05:43:00,35.0,34.0,29.30,ENE,68,0.0,-999.0,96,-99.99,,,-99.99,,2013-04-01 09:43:00,
2013-04-01 05:53:00,36.0,35.0,29.28,ENE,68,0.0,-999.0,96,-99.99,,,-99.99,,2013-04-01 09:53:00,
2013-04-01 06:03:00,35.0,34.0,29.28,ENE,68,0.0,-999.0,97,-99.99,,,-99.99,,2013-04-01 10:03:00,
2013-04-01 06:13:00,35.0,34.0,29.28,ENE,68,0.0,-999.0,97,-99.99,,,-99.99,,2013-04-01 10:13:00,
2013-04-01 06:23:00,35.0,34.0,29.28,ENE,68,0.0,-999.0,97,-99.99,,,-99.99,,2013-04-01 10:23:00,
2013-04-01 06:33:00,35.0,34.0,29.30,ENE,68,0.0,-999.0,97,-99.99,,,-99.99,,2013-04-01 10:33:00,
2013-04-01 06:42:00,35.0,34.0,29.30,ENE,68,0.0,-999.0,97,-99.99,,,-99.99,,2013-04-01 10:42:00,
2013-04-01 06:53:00,35.0,34.0,29.29,ENE,68,0.0,-999.0,97,-99.99,,,-99.99,,2013-04-01 10:53:00,
2013-04-01 07:03:00,35.0,34.0,29.29,ENE,68,0.0,-999.0,97,-99.99,,,-99.99,,2013-04-01 11:03:00,
2013-04-01 07:13:00,35.0,34.0,29.29,ENE,68,0.0,-999.0,97,-99.99,,,-99.99,,2013-04-01 11:13:00,
2013-04-01 07:23:00,35.0,34.0,29.28,ENE,68,0.0,-999.0,97,-99.99,,,-99.99,,2013-04-01 11:23:00,
2013-04-01 07:33:00,35.0,34.0,29.30,ENE,68,0.0,-999.0,97,-99.99,,,-99.99,,2013-04-01 11:33:00,
2013-04-01 07:43:00,35.0,34.0,29.30,ENE,68,0.0,-999.0,97,-99.99,,,-99.99,,2013-04-01 11:43:00,
2013-04-01 07:53:00,36.0,35.0,29.28,ENE,68,0.0,-999.0,97,-99.99,,,-99.99,,2013-04-01 11:53:00,
2013-04-01 08:03:00,35.0,34.0,29.29,ENE,68,0.0,-999.0,97,-99.99,,,-99.99,,2013-04-01 12:03:00,
2013-04-01 08:12:00,35.0,34.0,29.29,ENE,68,0.0,-999.0,97,-99.99,,,-99.99,,2013-04-01 12:12:00,
2013-04-01 08:23:00,36.0,35.0,29.28,ENE,68,0.0,-999.0,97,-99.99,,,-99.99,,2013-04-01 12:23:00,
2013-04-01 08:32:00,36.0,35.0,29.29,North,10,0.0,-999.0,97,-99.99,,,-99.99,,2013-04-01 12:32:00,
2013-04-01 08:43:00,36.0,35.0,29.29,North,10,0.0,-999.0,97,-99.99,,,-99.99,,2013-04-01 12:43:00,
2013-04-01 08:53:00,37.0,36.0,29.27,ENE,74,0.0,-999.0,97,-99.99,,,-99.99,,2013-04-01 12:53:00,
2013-04-01 09:03:00,37.0,36.0,29.29,ENE,57,0.0,-999.0,97,-99.99,,,-99.99,,2013-04-01 13:03:00,
2013-04-01 09:12:00,37.0,36.0,29.29,ENE,57,0.0,-999.0,97,-99.99,,,-99.99,,2013-04-01 13:12:00,
2013-04-01 09:22:00,38.0,37.0,29.26,NNW,332,1.0,-999.0,96,-99.99,,,-99.99,,2013-04-01 13:22:00,
2013-04-01 09:32:00,38.0,37.0,29.26,NE,52,1.0,-999.0,95,-99.99,,,-99.99,,2013-04-01 13:32:00,
2013-04-01 09:42:00,38.0,37.0,29.26,NE,52,1.0,-999.0,95,-99.99,,,-99.99,,2013-04-01 13:42:00,
2013-04-01 09:53:00,39.0,37.0,29.26,East,98,1.0,-999.0,94,-99.99,,,-99.99,,2013-04-01 13:53:00,
2013-04-01 10:12:00,40.0,38.0,29.24,East,86,1.0,-999.0,92,-99.99,,,-99.99,,2013-04-01 14:12:00,
2013-04-01 10:23:00,41.0,39.0,29.23,ENE,68,3.0,-999.0,91,-99.99,,,-99.99,,2013-04-01 14:23:00,
2013-04-01 10:33:00,41.0,38.0,29.25,NE,56,2.0,-999.0,89,-99.99,,,-99.99,,2013-04-01 14:33:00,
2013-04-01 10:42:00,41.0,38.0,29.25,NE,56,2.0,-999.0,89,-99.99,,,-99.99,,2013-04-01 14:42:00,
2013-04-01 10:53:00,43.0,39.0,29.22,NNE,29,2.0,-999.0,87,-99.99,,,-99.99,,2013-04-01 14:53:00,
2013-04-01 11:03:00,43.0,39.0,29.23,East,81,4.0,-999.0,85,-99.99,,,-99.99,,2013-04-01 15:03:00,
2013-04-01 11:13:00,43.0,39.0,29.23,East,81,4.0,-999.0,85,-99.99,,,-99.99,,2013-04-01 15:13:00,
2013-04-01 11:23:00,43.0,39.0,29.21,East,81,3.0,-999.0,86,-99.99,,,-99.99,,2013-04-01 15:23:00,
2013-04-01 11:34:00,43.0,38.0,29.23,East,88,5.0,-999.0,84,-99.99,,,-99.99,,2013-04-01 15:34:00,
2013-04-01 11:43:00,43.0,38.0,29.23,East,88,5.0,-999.0,84,-99.99,,,-99.99,,2013-04-01 15:43:00,
2013-04-01 11:54:00,44.0,39.0,29.21,East,80,1.0,-999.0,83,-99.99,,,-99.99,,2013-04-01 15:54:00,
2013-04-01 12:03:00,44.0,39.0,29.21,East,82,2.0,-999.0,81,-99.99,,,-99.99,,2013-04-01 16:03:00,
2013-04-01 12:13:00,44.0,39.0,29.21,East,82,2.0,-999.0,81,-99.99,,,-99.99,,2013-04-01 16:13:00,
2013-04-01 12:23:00,45.0,39.0,29.21,East,93,4.0,-999.0,79,-99.99,,,-99.99,,2013-04-01 16:23:00,
2013-04-01 12:43:00,45.0,39.0,29.21,East,93,4.0,-999.0,79,-99.99,,,-99.99,,2013-04-01 16:43:00,
2013-04-01 12:53:00,46.0,40.0,29.19,NNW,339,3.0,-999.0,78,-99.99,,,-99.99,,2013-04-01 16:53:00,
2013-04-01 13:03:00,45.0,39.0,29.20,East,80,2.0,-999.0,79,-99.99,,,-99.99,,2013-04-01 17:03:00,
2013-04-01 13:13:00,45.0,39.0,29.20,East,80,2.0,-999.0,79,-99.99,,,-99.99,,2013-04-01 17:13:00,
2013-04-01 13:23:00,45.0,39.0,29.17,ENE,78,2.0,-999.0,80,-99.99,,,-99.99,,2013-04-01 17:23:00,
2013-04-01 13:32:00,45.0,39.0,29.17,ENE,78,2.0,-999.0,80,-99.99,,,-99.99,,2013-04-01 17:32:00,
2013-04-01 13:42:00,45.0,39.0,29.17,ENE,78,2.0,-999.0,80,-99.99,,,-99.99,,2013-04-01 17:42:00,
2013-04-01 13:53:00,45.0,39.0,29.17,ENE,69,2.0,-999.0,80,-99.99,,,-99.99,,2013-04-01 17:53:00,
2013-04-01 14:03:00,44.0,39.0,29.18,East,90,2.0,-999.0,81,-99.99,,,-99.99,,2013-04-01 18:03:00,
2013-04-01 14:12:00,44.0,39.0,29.18,East,90,2.0,-999.0,81,-99.99,,,-99.99,,2013-04-01 18:12:00,
2013-04-01 14:22:00,45.0,40.0,29.16,East,100,3.0,-999.0,82,-99.99,,,-99.99,,2013-04-01 18:22:00,
2013-04-01 14:33:00,44.0,40.0,29.18,NNE,15,0.0,-999.0,86,-99.99,,,-99.99,,2013-04-01 18:33:00,
2013-04-01 14:43:00,44.0,40.0,29.18,NNE,15,0.0,-999.0,86,-99.99,,,-99.99,,2013-04-01 18:43:00,
2013-04-01 14:53:00,43.0,40.0,29.17,ESE,107,2.0,-999.0,89,-99.99,,,-99.99,,2013-04-01 18:53:00,
2013-04-01 15:03:00,43.0,41.0,29.18,ESE,111,1.0,-999.0,91,-99.99,,,-99.99,,2013-04-01 19:03:00,
2013-04-01 15:13:00,43.0,41.0,29.18,ESE,111,1.0,-999.0,91,-99.99,,,-99.99,,2013-04-01 19:13:00,
2013-04-01 15:23:00,43.0,40.0,29.17,ESE,110,1.0,-999.0,90,-99.99,,,-99.99,,2013-04-01 19:23:00,
2013-04-01 15:32:00,43.0,40.0,29.18,WNW,295,1.0,-999.0,90,-99.99,,,-99.99,,2013-04-01 19:32:00,
2013-04-01 15:42:00,43.0,40.0,29.18,WNW,295,1.0,-999.0,90,-99.99,,,-99.99,,2013-04-01 19:42:00,
2013-04-01 15:53:00,43.0,40.0,29.17,SSE,150,1.0,-999.0,88,-99.99,,,-99.99,,2013-04-01 19:53:00,
2013-04-01 16:02:00,43.0,40.0,29.19,ESE,114,2.0,-999.0,89,-99.99,,,-99.99,,2013-04-01 20:02:00,
2013-04-01 16:13:00,43.0,40.0,29.19,ESE,114,2.0,-999.0,89,-99.99,,,-99.99,,2013-04-01 20:13:00,
2013-04-01 16:23:00,39.0,35.0,29.21,NW,307,3.0,-999.0,86,-99.99,,,-99.99,,2013-04-01 20:23:00,
2013-04-01 16:33:00,38.0,35.0,29.23,WSW,253,2.0,-999.0,88,-99.99,,,-99.99,,2013-04-01 20:33:00,
2013-04-01 16:43:00,38.0,35.0,29.23,WSW,253,2.0,-999.0,88,-99.99,,,-99.99,,2013-04-01 20:43:00,
2013-04-01 16:52:00,38.0,35.0,29.23,SW,222,1.0,-999.0,90,-99.99,,,-99.99,,2013-04-01 20:52:00,
2013-04-01 17:02:00,38.0,35.0,29.25,SSW,209,1.0,-999.0,90,-99.99,,,-99.99,,2013-04-01 21:02:00,
2013-04-01 17:12:00,38.0,35.0,29.25,SSW,209,1.0,-999.0,90,-99.99,,,-99.99,,2013-04-01 21:12:00,
2013-04-01 17:23:00,38.0,35.0,29.25,ESE,103,2.0,-999.0,89,-99.99,,,-99.99,,2013-04-01 21:23:00,
2013-04-01 17:33:00,36.0,33.0,29.28,South,169,3.0,-999.0,87,-99.99,,,-99.99,,2013-04-01 21:33:00,
2013-04-01 17:43:00,36.0,33.0,29.28,South,169,3.0,-999.0,87,-99.99,,,-99.99,,2013-04-01 21:43:00,
2013-04-01 17:53:00,36.0,32.0,29.29,SW,233,2.0,-999.0,85,-99.99,,,-99.99,,2013-04-01 21:53:00,
2013-04-01 18:03:00,36.0,32.0,29.29,SW,233,2.0,-999.0,85,-99.99,,,-99.99,,2013-04-01 22:03:00,
2013-04-01 18:13:00,36.0,32.0,29.29,SW,233,2.0,-999.0,85,-99.99,,,-99.99,,2013-04-01 22:13:00,
2013-04-01 18:23:00,35.0,29.0,29.29,SSE,152,1.0,-999.0,80,-99.99,,,-99.99,,2013-04-01 22:23:00,
2013-04-01 18:33:00,35.0,29.0,29.31,East,97,0.0,-999.0,80,-99.99,,,-99.99,,2013-04-01 22:33:00,
2013-04-01 18:43:00,35.0,29.0,29.31,East,97,0.0,-999.0,80,-99.99,,,-99.99,,2013-04-01 22:43:00,
2013-04-01 18:52:00,35.0,27.0,29.29,ESE,110,0.0,-999.0,71,-99.99,,,-99.99,,2013-04-01 22:52:00,
2013-04-01 19:02:00,35.0,26.0,29.31,SSE,168,1.0,-999.0,69,-99.99,,,-99.99,,2013-04-01 23:02:00,
2013-04-01 19:12:00,35.0,26.0,29.31,SSE,168,1.0,-999.0,69,-99.99,,,-99.99,,2013-04-01 23:12:00,
2013-04-01 19:23:00,36.0,24.0,29.30,SSW,202,2.0,-999.0,61,-99.99,,,-99.99,,2013-04-01 23:23:00,
2013-04-01 19:32:00,35.0,23.0,29.31,SW,224,1.0,-999.0,60,-99.99,,,-99.99,,2013-04-01 23:32:00,
2013-04-01 19:43:00,35.0,23.0,29.31,SW,224,1.0,-999.0,60,-99.99,,,-99.99,,2013-04-01 23:43:00,
2013-04-01 19:53:00,35.0,20.0,29.31,WNW,289,2.0,-999.0,55,-99.99,,,-99.99,,2013-04-01 23:53:00,
2013-04-01 20:03:00,34.0,19.0,29.34,South,176,2.0,-999.0,54,-99.99,,,-99.99,,2013-04-02 00:03:00,
2013-04-01 20:12:00,34.0,19.0,29.34,South,176,2.0,-999.0,54,-99.99,,,-99.99,,2013-04-02 00:12:00,
2013-04-01 20:22:00,34.0,19.0,29.33,SSE,147,3.0,-999.0,54,-99.99,,,-99.99,,2013-04-02 00:22:00,
2013-04-01 20:33:00,33.0,18.0,29.36,SW,233,1.0,-999.0,54,-99.99,,,-99.99,,2013-04-02 00:33:00,
2013-04-01 20:43:00,33.0,18.0,29.36,SW,233,1.0,-999.0,54,-99.99,,,-99.99,,2013-04-02 00:43:00,
2013-04-01 20:53:00,33.0,18.0,29.35,SSE,150,2.0,-999.0,54,-99.99,,,-99.99,,2013-04-02 00:53:00,
2013-04-01 21:02:00,32.0,17.0,29.36,SSE,162,2.0,-999.0,54,-99.99,,,-99.99,,2013-04-02 01:02:00,
2013-04-01 21:12:00,32.0,17.0,29.36,SSE,162,2.0,-999.0,54,-99.99,,,-99.99,,2013-04-02 01:12:00,
2013-04-01 21:22:00,32.0,18.0,29.36,NNE,25,3.0,-999.0,56,-99.99,,,-99.99,,2013-04-02 01:22:00,
2013-04-01 21:32:00,31.0,17.0,29.38,NNE,25,4.0,-999.0,56,-99.99,,,-99.99,,2013-04-02 01:32:00,
2013-04-01 21:43:00,31.0,17.0,29.38,NNE,25,4.0,-999.0,56,-99.99,,,-99.99,,2013-04-02 01:43:00,
2013-04-01 21:53:00,31.0,18.0,29.37,NNE,25,2.0,-999.0,57,-99.99,,,-99.99,,2013-04-02 01:53:00,
2013-04-01 22:03:00,31.0,18.0,29.39,NNE,25,2.0,-999.0,57,-99.99,,,-99.99,,2013-04-02 02:03:00,
2013-04-01 22:12:00,31.0,18.0,29.39,NNE,25,2.0,-999.0,57,-99.99,,,-99.99,,2013-04-02 02:12:00,
2013-04-01 22:22:00,31.0,18.0,29.38,NNE,25,2.0,-999.0,59,-99.99,,,-99.99,,2013-04-02 02:22:00,
2013-04-01 22:32:00,30.0,17.0,29.41,NNE,25,2.0,-999.0,58,-99.99,,,-99.99,,2013-04-02 02:32:00,
2013-04-01 22:42:00,30.0,17.0,29.41,NNE,25,2.0,-999.0,58,-99.99,,,-99.99,,2013-04-02 02:42:00,
2013-04-01 22:53:00,30.0,16.0,29.38,NNE,25,3.0,-999.0,55,-99.99,,,-99.99,,2013-04-02 02:53:00,
2013-04-01 23:02:00,30.0,17.0,29.41,NNE,25,1.0,-999.0,57,-99.99,,,-99.99,,2013-04-02 03:02:00,
2013-04-01 23:13:00,30.0,17.0,29.41,NNE,25,1.0,-999.0,57,-99.99,,,-99.99,,2013-04-02 03:13:00,
2013-04-01 23:22:00,30.0,17.0,29.38,NNE,25,0.0,-999.0,57,-99.99,,,-99.99,,2013-04-02 03:22:00,
2013-04-01 23:33:00,29.0,15.0,29.40,NNE,25,1.0,-999.0,56,-99.99,,,-99.99,,2013-04-02 03:33:00,
2013-04-01 23:43:00,29.0,15.0,29.40,NNE,25,1.0,-999.0,56,-99.99,,,-99.99,,2013-04-02 03:43:00,
2013-04-01 23:53:00,29.0,15.0,29.38,NNE,25,3.0,-999.0,56,-99.99,,,-99.99,,2013-04-02 03:53:00,